Tracking 29892 objects as of 21-Nov-2024
HD Live streaming from Space Station
objects crossing your sky now

STARLINK-5487

Track STARLINK-5487 now!
10-day predictions
STARLINK-5487 is classified as:


NORAD ID: 55652
Int'l Code: 2023-021AA
Perigee: 577.3 km
Apogee: 581.1 km
Inclination: 70.0 °
Period: 96.1 minutes
Semi major axis: 6950 km
RCS: Unknown
Launch date: February 17, 2023
Source: United States (US)
Launch site: AIR FORCE WESTERN TEST RANGE (AFWTR)
Your satellite tracking list
Your tracking list is empty




NASA's NSSDC Master Catalog

Two Line Element Set (TLE):
1 55652U 23021AA  24325.36431537  .00000849  00000-0  78911-4 0  9990
2 55652  69.9985 300.3293 0002767 264.7434  95.3409 14.98330909 97746
Source of the keplerian elements: AFSPC